Погода Большое Нарымское

Поиск расширенной информации на нашем сайте:

Полезная информация:

Новости сайта



02.01.2020
Опубликован Долгосрочный прогноз погоды по городам России и ближнего зарубежья на январь 2020 года.
Карты: Прогноз на январь и февраль 2020 года, Сравнение прогнозируемой аномалии приземной температуры воздуха на январь 2020 года по разным моделям.




Погода Большое Нарымское - сегодня

Время (UTC), дата Ветер
(°,м/с) 
Видим.   Явления Облачность Т
(°С)
Тd
(°С)
f(%) Тe
(°С)
Pmin
(гПа)
dP
(гПа)
Po
(мм)
O2
(г/м3)
Тmin Tmax R s Состояние
почвы
12 22.10.21 300 (СЗ) н/о  слаб. ливневой дождь  10/10 600 м кучево-дожд. 
[Cb cap]
+1.2 -0.5 88 1031.9  6.1  737  295           
15 22.10.21 030 (СВ) н/о  {ливн. осадки}  10/8 1000 м кучево-дожд., средняя 
[Cb cap|Ac und]
+2 -0.2 85 +1  1033.5  1.7  738  295    +14       
18 22.10.21 тихо ()   н/о  {ливн. осадки}  10/6 1000 м кучево-дожд., средняя 
[Cb cap|Ac und]
+1.6 -1.2 82 +2  1034.7  739  296    +14     
21 22.10.21 080 (В) н/о    9/6 1000 м кучево-дожд., средняя 
[Cb cap|Ac und]
+1 -1.6 83 +2  1035.5  0.7  739  297           
00 23.10.21 030 (СВ) н/о    10/5 1000 м кучево-дожд., средняя 
[Cb cap|Ac und]
+0.6 -1.7 85 +1  1036.8  1.1  740  298           
03 23.10.21 140 (ЮВ) 20000 м    9/6 1000 м кучево-дожд., средняя 
[Cb cap|Ac und]
+1.8 -1 82 +1  1038.3  1.7  741  297  +0.4         
06 23.10.21 350 (С) 20000 м  {ливн. осадки}  9/5 1000 м кучево-дожд., средняя, верхняя 
[Cb cap|Ac lent|Ci sp]
+5.6 -2 58 +6  1037.7  0.1  741  293  +0.4         
09 23.10.21 220 (ЮЗ) 20000 м    9/4 1000 м кучево-дожд., средняя, верхняя 
[Cb cap|Ac lent|Ci sp]
+6.8 -6.4 38 +7  1036.7  -0.8  741  292           
12 23.10.21 080 (В) н/о    10/6 1000 м кучево-дожд., средняя 
[Cb cap|Ac und]
+4.7 -5.2 49 +4  1037.2  0.1  741  294           
15 23.10.21 080 (В) н/о    9/8 1000 м кучево-дожд., средняя 
[Cb cap|Ac und]
+4.5 -4.7 51 +3  1038  0.7  741  294    +7.4       
18 23.10.21 тихо ()   н/о    10/5 1000 м кучево-дожд., средняя 
[Cb cap|Ac und]
+3.2 -3.2 63 +3  1037.9  0.3  741  295    +7.4  0.4     
21 23.10.21 080 (В) н/о    10/4 1000 м кучево-дожд., средняя 
[Cb cap|Ac As]
+2.8 -2.7 67 +4  1037.8  -0.1  741  296           
00 24.10.21 080 (В) н/о    10/8 1000 м кучево-дожд., средняя 
[Cb cap|Ac und]
+3.8 -2.4 64 +5  1037.2  -0.4  741  295           
03 24.10.21 060 (СВ) 20000 м    10/6 1500 м средняя 
[Sc|Ac und]
+4.2 -3.2 59 +3  1036.8  -0.3  740  294           
06 24.10.21 350 (С) 20000 м    9/4 1500 м средняя 
[Sc|Ac As]
+6.5 -3.6 48 +7  1035.8  -0.6  740  292  +2.4         
09 24.10.21 310 (СЗ) 20000 м    9/3 1500 м средняя, верхняя 
[Sc|Ac lent|Ci sp]
+9.1 -4.5 38 +9  1033.6  -1.7  739  288           
12 24.10.21 150 (ЮВ) н/о    6/3 1500 м средняя, верхняя 
[Sc|Ac lent|Ci fib]
+5.8 -3.2 52 +7  1034.2  0.1  739  292           
15 24.10.21 060 (СВ) н/о    3/1 1500 м верхняя 
[Sc|Ci fib]
+0.4 -2.9 78 1034.5  -0.7  738  297    +10       
18 24.10.21 070 (В) н/о    1/0 верхняя 
[Ci fib]
-1.6 -3.5 87 -3  1033.4  -1.4  737  299    +10       
21 24.10.21 030 (СВ) н/о    ясно 
-2.6 -4.6 86 -4  1031.7  -1.8  736  300           
00 25.10.21 030 (СВ) н/о    ясно 
-2.8 -5.5 82 -4  1030.5  -1.2  735  300           
03 25.10.21 тихо ()   20000 м    ясно 
+0.2 -3.9 74 1029.1  -0.8  734  296           
06 25.10.21 230 (ЮЗ) 20000 м    1/0 верхняя 
[Ci fib]
+8.8 -3.7 41 +10  1025.8  -1.6  733  287  -3.8         
09 25.10.21 250 (З) 20000 м    ясно 
+11.1 -3.3 36 +12  1022.9  -2.4  731  283           
12 25.10.21 тихо ()   н/о    ясно 
+7.9 -2.8 47 +8  1023.1  -0.4  731  287           
Время (UTC), дата Ветер
(°,м/с) 
Видим.   Явления Облачность Т
(°С)
Тd
(°С)
f(%) Тe
(°С)
Pmin
(гПа)
dP
(гПа)
Po
(мм)
O2
(г/м3)
Тmin Tmax R s Состояние
почвы

Для получения пояснительной информации подведите курсор к названию столбца.

ПОГОДА Большое Нарымское - архив

Всё, что Вы хотите узнать о погоде Большое Нарымское - удобно и подробно!

Выберите нужную дату (начиная с 1 января 2019* года) и нажмите кнопку "Найти".
Будут отображены архивные сводки погоды по пункту Большое Нарымское, начиная с указанной даты.


Отображать данные в формате CSV (для использования в таблицах Excel)


Внимание! Наш архив погоды предназначен исключительно для личного некоммерческого использования в познавательных целях. Если Вам необходимы официальные справки о состоянии погоды (для производственных, юридических, коммерческих и т.п. целей), обращайтесь в органы Росгидромета.

*Примечание: данная дата относится к архиву по метеостанциям СССР (Россия, СНГ, Балтия).
Архив по метеостанциям Зарубежной Европы и Азии (кроме Китая) хранится 10 дней, по другим регионам земного шара (Китай, Африка, Америка, Австралия, Океания) - 1 день.

Большое Нарымское - район местоположения метеостанции


Название, широта, долгота, высота метеостанции:
Большое Нарымское 49.2°ш. 84.5°д. 401 м над ур. моря [Казахстан]

Дополнительная информация

В oтличие oт бoльшинства пoгoдных сайтoв мы публикуем пoдрoбную метеoинфoрмацию в детальнoм прoфессиoнальнoм фoрмате.

Характеристики температуры и влажнoсти вoздуха измеряются на высoте 2 м в тени вдали oт зданий и деревьев.
Скoрoсть ветра измеряется на высoте 10 м (на урoвне рoста челoвека скoрoсть ветра ниже в 1.5-2 раза). Если метеoстанция нахoдится в гoрoде или в лесу, тo скoрoсть ветра занижена на 2-4 м/с пo сравнению с oткрытым местoм. Скoрoсть ветра над акватoриями крупных рек и oзёр, а также на вершинах хoлмoв на 2-5 м/с выше, чем в oбычных услoвиях.
Атмoсфернoе давление в разных тoчках местнoсти мoжет значительнo oтличаться oт давления на метеoстанции, в зависимoсти oт услoвий рельефа (при пoдъёме на 10 м давление пoнижается примернo на 1 мм рт.ст.).